This demonstration page uses our WeatherBlox Daily Observations layout. Learn more.

Left ArrowRight Arrow

Hourly Observations for May 24, 2015

Temp ( °F °C ) Dew Point ( °F °C ) Humidity (%) Winds ( mph kmh ) Pressure ( in mb ) Visibility ( mi km ) Precip ( " mm )
12:53 am 00:53 Clear 65 18.3 51 10.6 61 61 NNE 5 7 29.97 1015 10 16 0.00 0.00
1:53 am 01:53 Clear 62 16.7 51 10.6 67 67 NW 3 6 29.96 1015 10 16 0.00 0.00
2:53 am 02:53 Clear 61 16.1 50 10 67 67 N 3 6 29.96 1015 10 16 0.00 0.00
3:53 am 03:53 Clear 61 16.1 51 10.6 70 70 NW 5 7 29.95 1014 10 16 0.00 0.00
4:53 am 04:53 Clear 61 16.1 51 10.6 70 70 NNW 5 7 29.94 1014 10 16 0.00 0.00
5:53 am 05:53 Sunny 59 15 51 10.6 75 75 NW 3 6 29.94 1014 10 16 0.00 0.00
6:53 am 06:53 Sunny 62 16.7 51 10.6 67 67 N 5 7 29.94 1014 10 16 0.00 0.00
7:53 am 07:53 Sunny 67 19.4 51 10.6 57 57 N 3 6 29.93 1014 10 16 0.00 0.00
8:53 am 08:53 Sunny 72 22.2 50 10 46 46 VRB 7 11 29.92 1013 10 16 0.00 0.00
9:53 am 09:53 Sunny 77 25 49 9.4 37 37 N 5 7 29.90 1013 10 16 0.00 0.00
10:53 am 10:53 Sunny 81 27.2 49 9.4 33 33 VRB 6 9 29.88 1012 10 16 0.00 0.00
11:53 am 11:53 Sunny 86 30 51 10.6 30 30 NNW 7 11 29.86 1011 10 16 0.00 0.00
12:53 pm 12:53 Sunny 87 30.6 47 8.3 25 25 VRB 3 6 29.83 1010 10 16 0.00 0.00
1:53 pm 13:53 Sunny 88 31.1 46 7.8 23 23 VRB 3 6 29.81 1010 10 16 0.00 0.00
2:53 pm 14:53 Sunny 89 31.7 45 7.2 22 22 SW 5 7 29.80 1009 10 16 0.00 0.00
3:53 pm 15:53 Sunny 91 32.8 43 6.1 19 19 SSE 7 11 29.77 1008 10 16 0.00 0.00
4:53 pm 16:53 Sunny 90 32.2 41 5 18 18 undefined N/A 29.75 1007 10 16 0.00 0.00
5:53 pm 17:53 Sunny 90 32.2 43 6.1 19 19 SSE 9 15 29.74 1007 10 16 0.00 0.00
6:53 pm 18:53 Sunny 88 31.1 52 11.1 29 29 S 20 31 29.74 1007 10 16 0.00 0.00
7:53 pm 19:53 Sunny 84 28.9 51 10.6 32 32 S 16 26 29.75 1007 10 16 0.00 0.00
8:53 pm 20:53 Mostly Clear 81 27.2 53 11.7 38 38 S 14 22 29.76 1008 10 16 0.00 0.00
9:53 pm 21:53 Mostly Cloudy 80 26.7 56 13.3 44 44 S 7 11 29.79 1009 10 16 0.00 0.00
10:53 pm 22:53 Clear 77 25 55 12.8 47 47 WSW 3 6 29.81 1010 10 16 0.00 0.00
11:53 pm 23:53 Clear 75 23.9 55 12.8 50 50 WSW 3 6 29.82 1010 10 16 0.00 0.00

Powered by AerisWeather